Rolla, ND

5:40 PM CDT on April 22, 2018 (GMT -0500)
Rolla

Weather History for K06D - March, 2013

Change the Weather History Date:

Saturday, March 2, 2013

  Actual Average (KRUG) Record (KRUG)
Temperature  
Mean Temperature 18 °F -  
Max Temperature 26 °F 27 °F 55 °F (1992)
Min Temperature 10 °F 7 °F -28 °F (1972)
Degree Days  
Heating Degree Days 47    
Moisture  
Dew Point 18 °F    
Average Humidity 96    
Maximum Humidity 100    
Minimum Humidity 86    
Precipitation  
Precipitation 0.01 in - - ()
Sea Level Pressure  
Sea Level Pressure 30.05 in    
Wind  
Wind Speed 12 mph (SSW)    
Max Wind Speed 18 mph    
Max Gust Speed -    
Visibility 7 miles    
Events Fog , Rain    
Averages and records for this station are not official NWS values.
T = Trace of Precipitation, MM = Missing Value Source: NWS Daily Summary

Daily Weather History Graph

Daily Weather History Graph

Search for Another Location

Airport or City:

Astronomy

Mar. 02, 2013 Rise Set
Actual Time 7:17 AM CST 6:24 PM CST
Civil Twilight 6:46 AM CST 6:55 PM CST
Nautical Twilight 6:09 AM CST 7:32 PM CST
Astronomical Twilight 5:33 AM CST 8:09 PM CST
Moon No Moon Rise 9:17 AM CST (3/2)
Length of Visible Light 12h 09m
Length of Day
11h 06m
Waning Gibbous, 74% of the Moon is Illuminated
Mar 2
Waning Gibbous
Mar 4
Last Quarter
Mar 11
New
Mar 19
First Quarter
Mar 27
Full

Hourly Weather History & Observations

Time (CST) Temp. Windchill Dew Point Humidity Pressure Visibility Wind Dir Wind Speed Gust Speed Precip Events Conditions
12:15 AM 10.4 °F -7.2 °F 8.6 °F 92% 30.20 in 10.0 mi SSW 17.3 mph - N/A   Overcast
12:35 AM 10.4 °F -4.1 °F 8.6 °F 92% 30.19 in 10.0 mi South 11.5 mph - N/A   Overcast
12:55 AM 12.2 °F -3.1 °F 10.4 °F 92% 30.19 in 10.0 mi SSW 13.8 mph - N/A   Overcast
1:15 AM 10.4 °F -7.2 °F 8.6 °F 92% 30.18 in 10.0 mi SSW 17.3 mph - N/A   Overcast
1:35 AM 12.2 °F -5.3 °F 10.4 °F 92% 30.17 in 10.0 mi SSW 18.4 mph - N/A   Overcast
1:55 AM 12.2 °F -5.3 °F 10.4 °F 92% 30.15 in 10.0 mi SSW 18.4 mph - N/A   Overcast
2:15 AM 12.2 °F -4.8 °F 10.4 °F 92% 30.15 in 10.0 mi SSW 17.3 mph - N/A   Overcast
2:35 AM 14.0 °F -0.8 °F 10.4 °F 86% 30.15 in 10.0 mi SSW 13.8 mph - N/A   Overcast
2:55 AM 14.0 °F -3.0 °F 10.4 °F 86% 30.13 in 10.0 mi SSW 18.4 mph - N/A   Overcast
3:15 AM 14.0 °F -2.5 °F 12.2 °F 93% 30.13 in 10.0 mi SSW 17.3 mph - N/A   Overcast
3:55 AM 15.8 °F 0.9 °F 14.0 °F 93% 30.12 in 10.0 mi SSW 15.0 mph - N/A   Overcast
4:15 AM 15.8 °F 2.7 °F 14.0 °F 93% 30.11 in 10.0 mi South 11.5 mph - N/A   Overcast
4:35 AM 15.8 °F 2.7 °F 15.8 °F 100% 30.10 in 10.0 mi South 11.5 mph - N/A   Overcast
5:15 AM 17.6 °F 5.0 °F 15.8 °F 93% 30.09 in 7.0 mi South 11.5 mph - N/A Rain Light Freezing Rain
5:55 AM 17.6 °F 4.3 °F 15.8 °F 93% 30.09 in 10.0 mi South 12.7 mph - N/A   Overcast
6:35 AM 15.8 °F 2.7 °F 15.8 °F 100% 30.08 in 10.0 mi South 11.5 mph - N/A   Overcast
6:55 AM 15.8 °F 3.4 °F 14.0 °F 93% 30.07 in 10.0 mi SSW 10.4 mph - N/A   Overcast
7:15 AM 14.0 °F 2.9 °F 14.0 °F 100% 30.07 in 10.0 mi South 8.1 mph - N/A   Mostly Cloudy
7:55 AM 14.0 °F 0.5 °F 12.2 °F 93% 30.07 in 10.0 mi SSW 11.5 mph - N/A   Mostly Cloudy
8:15 AM 14.0 °F 2.0 °F 12.2 °F 93% 30.06 in 10.0 mi South 9.2 mph - N/A   Scattered Clouds
8:35 AM 14.0 °F 2.9 °F 14.0 °F 100% 30.06 in 10.0 mi South 8.1 mph - N/A   Partly Cloudy
8:55 AM 14.0 °F -1.4 °F 14.0 °F 100% 30.06 in 10.0 mi SSW 15.0 mph - N/A   Clear
9:15 AM 15.8 °F 1.4 °F 15.8 °F 100% 30.04 in 10.0 mi SSW 13.8 mph - N/A   Clear
9:35 AM 17.6 °F 4.3 °F 15.8 °F 93% 30.04 in 10.0 mi SSW 12.7 mph - N/A   Clear
9:55 AM 17.6 °F 6.4 °F 15.8 °F 93% 30.06 in 10.0 mi SW 9.2 mph - N/A   Clear
10:15 AM 19.4 °F 7.9 °F 17.6 °F 93% 30.05 in 10.0 mi SW 10.4 mph - N/A Rain Light Freezing Rain
10:35 AM 19.4 °F 10.4 °F 17.6 °F 93% 30.06 in 10.0 mi SSW 6.9 mph - N/A Rain Light Freezing Rain
10:55 AM 19.4 °F 8.6 °F 17.6 °F 93% 30.04 in 10.0 mi South 9.2 mph - N/A Rain Light Freezing Rain
11:15 AM 19.4 °F 8.6 °F 19.4 °F 100% 30.06 in 10.0 mi SSW 9.2 mph - N/A Rain Light Freezing Rain
11:35 AM 19.4 °F 7.9 °F 19.4 °F 100% 30.04 in 10.0 mi South 10.4 mph - N/A Rain Light Freezing Rain
11:55 AM 21.2 °F 9.5 °F 19.4 °F 93% 30.04 in 10.0 mi SSW 11.5 mph - N/A Rain Light Freezing Rain
12:15 PM 21.2 °F 10.1 °F 19.4 °F 93% 30.03 in 10.0 mi SSW 10.4 mph - N/A Rain Light Freezing Rain
12:35 PM 23.0 °F 13.9 °F 19.4 °F 86% 30.03 in 10.0 mi SSW 8.1 mph - N/A Rain Light Freezing Rain
12:55 PM 23.0 °F 13.9 °F 21.2 °F 93% 30.03 in 10.0 mi SSW 8.1 mph - N/A Rain Light Freezing Rain
1:15 PM 23.0 °F 14.7 °F 23.0 °F 100% 30.03 in 10.0 mi South 6.9 mph - N/A Rain Light Freezing Rain
1:35 PM 24.8 °F 16.9 °F 23.0 °F 93% 30.03 in 10.0 mi SSW 6.9 mph - N/A Rain Light Freezing Rain
1:55 PM 24.8 °F 16.9 °F 23.0 °F 93% 30.03 in 10.0 mi SSW 6.9 mph - N/A Rain Light Freezing Rain
2:15 PM 24.8 °F 19.1 °F 23.0 °F 93% 30.02 in 10.0 mi South 4.6 mph - N/A Rain Light Freezing Rain
2:35 PM 26.6 °F 20.0 °F 24.8 °F 93% 30.01 in 10.0 mi North 5.8 mph - N/A Rain Light Freezing Rain
2:55 PM 26.6 °F 17.5 °F 24.8 °F 93% 30.01 in 10.0 mi North 9.2 mph - 0.01 in Rain Light Freezing Rain
3:15 PM 26.6 °F 16.8 °F 24.8 °F 93% 30.02 in 10.0 mi North 10.4 mph - N/A Rain Light Freezing Rain
3:35 PM 26.6 °F 19.1 °F 24.8 °F 93% 30.02 in 10.0 mi North 6.9 mph - N/A Rain Light Freezing Rain
3:55 PM 24.8 °F 15.3 °F 24.8 °F 100% 30.03 in 10.0 mi North 9.2 mph - N/A Rain Light Freezing Rain
4:15 PM 24.8 °F 15.3 °F 24.8 °F 100% 30.03 in 10.0 mi North 9.2 mph - N/A Rain Light Freezing Rain
4:35 PM 24.8 °F 14.6 °F 24.8 °F 100% 30.03 in 7.0 mi North 10.4 mph - N/A Rain Light Freezing Rain
4:55 PM 24.8 °F 14.6 °F 24.8 °F 100% 30.03 in 5.0 mi NNW 10.4 mph - N/A Rain Light Freezing Rain
5:15 PM 23.0 °F 11.7 °F 23.0 °F 100% 30.03 in 6.0 mi North 11.5 mph - N/A Rain Light Freezing Rain
5:35 PM 23.0 °F 12.4 °F 23.0 °F 100% 30.03 in 5.0 mi North 10.4 mph - N/A Rain Light Freezing Rain
5:55 PM 23.0 °F 11.1 °F 23.0 °F 100% 30.03 in 7.0 mi North 12.7 mph - N/A Rain Light Freezing Rain
6:15 PM 23.0 °F 11.1 °F 23.0 °F 100% 30.03 in 4.0 mi NNW 12.7 mph - N/A Rain Light Freezing Rain
6:35 PM 23.0 °F 11.1 °F 23.0 °F 100% 30.03 in 4.0 mi NNW 12.7 mph - N/A Rain Light Freezing Rain
6:55 PM 21.2 °F 8.9 °F 21.2 °F 100% 30.03 in 0.8 mi North 12.7 mph - N/A Rain Light Freezing Rain
7:15 PM 21.2 °F 9.5 °F 21.2 °F 100% 30.03 in 0.2 mi North 11.5 mph - N/A Fog Light Freezing Fog
7:35 PM 21.2 °F 10.1 °F 21.2 °F 100% 30.02 in 0.2 mi North 10.4 mph - N/A Rain Light Freezing Rain
7:55 PM 21.2 °F 10.9 °F 21.2 °F 100% 30.02 in 0.2 mi North 9.2 mph - N/A Rain Light Freezing Rain
8:15 PM 21.2 °F 10.9 °F 21.2 °F 100% 30.01 in 0.2 mi NNE 9.2 mph - N/A Rain Light Freezing Rain
8:35 PM 21.2 °F 13.6 °F 21.2 °F 100% 30.01 in 0.2 mi NNE 5.8 mph - N/A Rain Light Freezing Rain
8:55 PM 21.2 °F 13.6 °F 21.2 °F 100% 30.01 in 0.2 mi North 5.8 mph - N/A Rain Light Freezing Rain
9:15 PM 21.2 °F - 21.2 °F 100% 30.01 in 0.2 mi Calm Calm - N/A Rain Light Freezing Rain
9:35 PM 19.4 °F - 19.4 °F 100% 30.01 in 0.2 mi Calm Calm - N/A Rain Light Freezing Rain
9:55 PM 19.4 °F 11.5 °F 19.4 °F 100% 30.00 in 0.2 mi SSE 5.8 mph - N/A Rain Light Freezing Rain
10:15 PM 19.4 °F 11.5 °F 19.4 °F 100% 30.00 in 0.2 mi SSE 5.8 mph - N/A Rain Light Freezing Rain
10:35 PM 19.4 °F 12.8 °F 19.4 °F 100% 30.00 in 0.2 mi South 4.6 mph - N/A Rain Light Freezing Rain
10:55 PM 19.4 °F 8.6 °F 19.4 °F 100% 30.00 in 0.2 mi South 9.2 mph - N/A Rain Light Freezing Rain
11:15 PM 19.4 °F 9.5 °F 19.4 °F 100% 29.99 in 0.2 mi South 8.1 mph - N/A Rain Light Freezing Rain
11:35 PM 19.4 °F 9.5 °F 19.4 °F 100% 29.98 in 0.2 mi SSW 8.1 mph - N/A Rain Light Freezing Rain
11:55 PM 19.4 °F 9.5 °F 19.4 °F 100% 29.98 in 0.2 mi SSW 8.1 mph - N/A Rain Light Freezing Rain